Location: Claremont
(33.9858°S, 18.4575°E)
Time: 21:17:24
(UTC+00:00)

BlueWalker 3 - Visible Passes

Search period start: 04 December 2022 00:00
Search period end: 14 December 2022 00:00
Orbit: 501 x 519 km, 53.2° (Epoch: 04 December)

Date Brightness Start Highest point End Pass type
(mag) Time Alt. Az. Time Alt. Az. Time Alt. Az.
04 Dec 3.8 00:18:44 30° SE 00:18:44 30° SE 00:20:49 10° SE visible
04 Dec 4.5 01:54:04 10° WSW 01:56:03 13° SSW 01:58:03 10° S visible
05 Dec 4.2 00:00:46 24° SE 00:00:46 24° SE 00:02:25 10° SE visible
05 Dec 4.6 01:35:54 10° SW 01:37:42 13° SSW 01:39:31 10° S visible
05 Dec 4.5 23:42:46 19° SE 23:42:46 19° SE 23:44:01 10° SE visible
06 Dec 4.6 01:17:44 10° SW 01:19:22 12° SSW 01:20:58 10° S visible
06 Dec 4.8 23:24:42 16° SE 23:24:42 16° SE 23:25:36 10° SE visible
07 Dec 4.7 00:59:37 10° SW 01:01:00 12° SSW 01:02:24 10° S visible
07 Dec 4.9 23:06:33 14° SE 23:06:33 14° SE 23:07:12 10° SE visible
08 Dec 4.8 00:41:31 10° SW 00:42:39 11° SSW 00:43:47 10° S visible
08 Dec 5.0 22:48:20 13° SE 22:48:20 13° SE 22:48:46 10° SE visible
09 Dec 4.9 00:23:31 10° SW 00:24:17 10° SSW 00:25:04 10° SSW visible
09 Dec 5.1 22:30:02 12° SE 22:30:02 12° SE 22:30:20 10° SE visible
10 Dec 5.0 22:11:38 12° SSE 22:11:38 12° SSE 22:11:54 10° SSE visible
11 Dec 4.9 21:53:04 12° SSE 21:53:04 12° SSE 21:53:27 10° SSE visible
12 Dec 4.7 21:34:13 15° SSE 21:34:13 15° SSE 21:35:00 10° SSE visible
13 Dec 4.3 21:14:56 21° SSE 21:14:56 21° SSE 21:16:32 10° SSE visible
